Location: Auckland
(36.8670°S, 174.7670°E)
Time: 17:57:56
(UTC+12:00)

Tiros 1 despin weight - Pass Details

Date: 20 July 2019
Orbit: 594 x 642 km, 48.2° (Epoch: 20 August)

Event Time Altitude Azimuth Distance (km) Brightness Sun altitude
Rises 22:34:58 0° 350° (N) 2,823 - -60.7°
Reaches altitude 10° 22:38:01 10° 12° (NNE) 1,927 - -61.3°
Maximum altitude 22:40:39 16° 49° (NE) 1,595 - -61.7°
Drops below altitude 10° 22:43:19 10° 86° (E) 1,941 - -62.2°
Sets 22:46:24 0° 108° (ESE) 2,854 - -62.7°
